GSAT-11 (43824 NORAD) Tracking and Keplerian Element Data

This shows tracking and keplerian element data for the satellite.

Feedback or suggestion? Click here.




ElementValue
Catalog43824
NameGSAT-11
Epoch Orbit9
Epoch Day344.61934578
Epoch Year2018
RAAN275.272
Inclination0.0849
Eccentricity0.004143
Argument of Perigee107.549
Mean Anonmoly345.7556
Mean Motion1.00681317
Decay Rate-9E-07
L11 43824U 18100B 18344.61934578 -.00000090 00000-0 00000+0 0 9993
L22 43824 0.0849 275.2720 0041430 107.5490 345.7556 1.00681317 98

Live tracking and technical data element details for GSAT-11 (NORAD 43824). GSAT-11 can be tracked NOW for your location showing map with azimuth and elevation plus other details from your city location.

Track the satellite on the map from your city or location and see movement details for azimuth, elevation, latitude, longitude, range, height, and movement on the map or in text.







IsCatalogInMostPopularTable: catalog: 43824, numindb: 1
Update: records affected: 1



GetName: 43824 GSAT-11

Hit Count: updated at: Tue, 11 Dec 2018 03:27:38 GMT